{"data":{"norad_id":66160,"intl_designator":"2025-240Q","name":"STARLINK-35636","alt_names":[],"object_type":"PAYLOAD","status":"ACTIVE","operator":null,"country":"US","launch_date":"2025-10-25","launch_site_code":"AFWTR","launch_vehicle":null,"mission":null,"orbit_class":"UNKNOWN","rcs_meters":null,"size_class":null,"mass_kg":null,"dimensions":null,"purposes":["comms"],"wikipedia_slug":null,"has_3d_model":false,"image_url":null,"decayed_at":null,"tle_current":{"epoch":"2026-09-20T07:45:03.555648Z","epoch_age_seconds":115724,"freshness":"FRESH","line1":"1 66160U 25240Q   26263.32295782  .00033781  00000+0  10070-2 0  9990","line2":"2 66160  53.1572 236.2132 0002451  86.3822 273.7461 15.34381816 51820","mean_motion":15.34381816,"eccentricity":0.0002451,"inclination_deg":53.1572,"raan_deg":236.2132,"arg_perigee_deg":86.3822,"mean_anomaly_deg":273.7461,"bstar":0.001007,"rev_number":5182,"period_min":93.848870273629,"perigee_km":461.08058423112,"apogee_km":464.43399061081,"semimajor_km":6840.894287421,"source":"CELESTRAK","updated_at":"2026-09-21T09:00:35.815164Z"}}}